Weather History for Bogalusa, LA

Change the Weather History Date:

Friday, February 15, 2013

  Actual Average Record
Temperature  
Mean Temperature 49 °F -  
Max Temperature 65 °F 67 °F 65 °F (2013)
Min Temperature 33 °F 43 °F 33 °F (2013)
Degree Days  
Heating Degree Days 16    
Moisture  
Dew Point 23 °F    
Average Humidity 52    
Maximum Humidity 97    
Minimum Humidity 4    
Precipitation  
Precipitation 0.00 in - - ()
Sea Level Pressure  
Sea Level Pressure 30.14 in    
Wind  
Wind Speed 2 mph (North)    
Max Wind Speed 10 mph    
Max Gust Speed 16 mph    
Visibility 10 miles    
Events      
Averages and records for this station are not official NWS values.
T = Trace of Precipitation, MM = Missing Value Source: NWS Daily Summary

Daily Weather History Graph

Daily Weather History Graph

Search for Another Location

Airport:

Trip Planner

Search our weather history database for the weather conditions in past years. The results will help you decide how hot, cold, wet, or windy it might be!

Date:

Astronomy

Feb. 15, 2013 Rise Set
Actual Time 6:40 AM CST 5:47 PM CST
Civil Twilight 6:15 AM CST 6:12 PM CST
Nautical Twilight 5:47 AM CST 6:40 PM CST
Astronomical Twilight 5:18 AM CST 7:08 PM CST
Moon 9:42 AM CST (2/15) 11:20 PM CST (2/15)
Length of Visible Light 11h 56m
Length of Day
11h 07m
Waxing Crescent, 30% of the Moon is Illuminated
Feb 15
Waxing Crescent
Feb 17
First Quarter
Feb 25
Full
Mar 4
Last Quarter
Mar 11
New

Hourly Weather History & Observations

Time (CST) Temp. Dew Point Humidity Pressure Visibility Wind Dir Wind Speed Gust Speed Precip Events Conditions
12:15 AM 37.0 °F 36.0 °F 96% 30.12 in 10.0 mi Calm Calm - N/A   Unknown
12:35 AM 37.0 °F 36.0 °F 96% 30.13 in 10.0 mi Calm Calm - N/A   Unknown
12:55 AM 37.4 °F 36.5 °F 97% 30.12 in 10.0 mi Calm Calm - N/A   Unknown
1:15 AM 36.5 °F 35.6 °F 97% 30.13 in 10.0 mi Calm Calm - N/A   Unknown
1:35 AM 35.8 °F 34.9 °F 97% 30.13 in 10.0 mi Calm Calm - N/A   Unknown
1:55 AM 36.0 °F 35.1 °F 97% 30.14 in 10.0 mi Calm Calm - N/A   Unknown
2:15 AM 35.6 °F 34.7 °F 97% 30.14 in 10.0 mi Calm Calm - N/A   Unknown
2:55 AM 34.5 °F 33.6 °F 97% 30.13 in 10.0 mi Calm Calm - N/A   Unknown
3:15 AM 34.3 °F 33.4 °F 97% 30.13 in 10.0 mi Calm Calm - N/A   Unknown
3:35 AM 34.2 °F 33.3 °F 97% 30.13 in 10.0 mi Calm Calm - N/A   Unknown
3:55 AM 34.2 °F 33.3 °F 97% 30.13 in 10.0 mi Calm Calm - N/A   Unknown
4:15 AM 34.2 °F 33.3 °F 97% 30.13 in 10.0 mi Calm Calm - N/A   Unknown
4:35 AM 33.8 °F 32.9 °F 96% 30.13 in 10.0 mi Calm Calm - N/A   Unknown
4:55 AM 34.3 °F 33.6 °F 97% 30.15 in 10.0 mi Calm Calm - N/A   Unknown
5:15 AM 33.8 °F 32.9 °F 96% 30.15 in 10.0 mi Calm Calm - N/A   Unknown
5:35 AM 33.6 °F 32.7 °F 96% 30.15 in 10.0 mi Calm Calm - N/A   Unknown
5:55 AM 34.2 °F 33.3 °F 97% 30.16 in 10.0 mi Calm Calm - N/A   Unknown
6:15 AM 34.3 °F 33.1 °F 95% 30.17 in 10.0 mi Calm Calm - N/A   Unknown
6:35 AM 33.3 °F 32.4 °F 96% 30.17 in 10.0 mi Calm Calm - N/A   Unknown
6:55 AM 33.3 °F 32.4 °F 96% 30.18 in 10.0 mi Calm Calm - N/A   Unknown
7:15 AM 34.2 °F 33.3 °F 97% 30.18 in 10.0 mi Calm Calm - N/A   Unknown
7:35 AM 36.3 °F 35.2 °F 96% 30.19 in 10.0 mi Calm Calm - N/A   Unknown
7:55 AM 39.0 °F 37.2 °F 93% 30.19 in 10.0 mi Calm Calm - N/A   Unknown
8:15 AM 41.4 °F 39.4 °F 93% 30.21 in 10.0 mi Calm Calm - N/A   Unknown
8:35 AM 44.4 °F 36.3 °F 73% 30.21 in 10.0 mi Calm Calm - N/A   Unknown
8:55 AM 46.9 °F 37.0 °F 68% 30.21 in 10.0 mi Calm Calm - N/A   Unknown
9:15 AM 49.6 °F 32.0 °F 51% 30.20 in 10.0 mi Calm Calm - N/A   Unknown
9:35 AM 52.5 °F 30.6 °F 43% 30.20 in 10.0 mi Calm Calm - N/A   Unknown
9:55 AM 54.9 °F 26.6 °F 34% 30.20 in 10.0 mi Calm Calm - N/A   Unknown
10:15 AM 56.7 °F 19.8 °F 24% 30.20 in 10.0 mi Calm Calm - N/A   Unknown
10:35 AM 58.5 °F 16.9 °F 20% 30.19 in 10.0 mi NNE 4.6 mph - N/A   Unknown
10:55 AM 58.6 °F 14.2 °F 17% 30.19 in 10.0 mi North 6.9 mph - N/A   Unknown
11:15 AM 59.7 °F 11.5 °F 15% 30.18 in 10.0 mi Calm Calm - N/A   Unknown
11:55 AM 61.2 °F 7.2 °F 12% 30.16 in 10.0 mi NNE 6.9 mph - N/A   Unknown
12:15 PM 62.6 °F 5.7 °F 10% 30.15 in 10.0 mi NNW 5.8 mph - N/A   Unknown
12:35 PM 62.6 °F -5.3 °F 6% 30.14 in 10.0 mi NNW 3.5 mph - N/A   Unknown
12:55 PM 63.7 °F -10.1 °F 5% 30.13 in 10.0 mi NNE 8.1 mph - N/A   Unknown
1:15 PM 63.9 °F -16.4 °F 4% 30.12 in 10.0 mi NNE 10.4 mph 16.1 mph N/A   Unknown
1:35 PM - - N/A% 30.11 in 10.0 mi NE 4.6 mph - N/A   Unknown
1:55 PM 64.6 °F -13.0 °F 4% 30.10 in 10.0 mi NE 5.8 mph - N/A   Unknown
2:15 PM 64.2 °F -5.3 °F 6% 30.10 in 10.0 mi North 5.8 mph - N/A   Unknown
2:35 PM 65.5 °F 1.2 °F 8% 30.09 in 10.0 mi North 6.9 mph - N/A   Unknown
2:55 PM 63.7 °F -1.7 °F 7% 30.09 in 10.0 mi NNW 8.1 mph 16.1 mph N/A   Unknown
3:15 PM 65.1 °F 0.7 °F 8% 30.09 in 10.0 mi NNW 8.1 mph - N/A   Unknown
3:35 PM 64.6 °F -4.7 °F 6% 30.09 in 10.0 mi WNW 4.6 mph - N/A   Unknown
3:55 PM 64.8 °F -0.6 °F 7% 30.09 in 10.0 mi North 8.1 mph - N/A   Unknown
4:15 PM 64.2 °F -0.0 °F 8% 30.09 in 10.0 mi North 8.1 mph - N/A   Unknown
4:35 PM 62.8 °F 1.9 °F 9% 30.09 in 10.0 mi NNW 4.6 mph - N/A   Unknown
4:55 PM 61.2 °F 14.2 °F 16% 30.08 in 10.0 mi NNW 3.5 mph - N/A   Unknown
5:15 PM 60.4 °F 19.9 °F 21% 30.08 in 10.0 mi Calm Calm - N/A   Unknown
5:35 PM 58.3 °F 30.4 °F 35% 30.09 in 10.0 mi Calm Calm - N/A   Unknown
5:55 PM 55.2 °F 32.5 °F 42% 30.09 in 10.0 mi NNW 5.8 mph - N/A   Unknown
6:15 PM 56.5 °F 24.3 °F 29% 30.10 in 10.0 mi NNW 5.8 mph - N/A   Overcast
6:35 PM 54.5 °F 25.7 °F 33% 30.10 in 10.0 mi NNW 3.5 mph - N/A   Scattered Clouds
6:55 PM 53.6 °F 28.2 °F 38% 30.11 in 10.0 mi North 3.5 mph - N/A   Unknown
7:15 PM 52.3 °F 28.2 °F 39% 30.11 in 10.0 mi North 3.5 mph - N/A   Unknown
7:35 PM 50.7 °F 30.0 °F 45% 30.12 in 10.0 mi NNW 4.6 mph - N/A   Unknown
7:55 PM 50.0 °F 29.1 °F 45% 30.13 in 10.0 mi NNW 4.6 mph - N/A   Unknown
8:15 PM 50.9 °F 27.0 °F 40% 30.14 in 10.0 mi North 9.2 mph - N/A   Clear
8:35 PM 51.1 °F 25.5 °F 37% 30.15 in 10.0 mi North 9.2 mph - N/A   Unknown
8:55 PM 50.5 °F 25.7 °F 38% 30.16 in 10.0 mi North 9.2 mph - N/A   Unknown
9:15 PM 50.9 °F 26.2 °F 38% 30.17 in 10.0 mi North 6.9 mph - N/A   Unknown
9:35 PM 50.9 °F 26.1 °F 38% 30.17 in 10.0 mi North 8.1 mph - N/A   Unknown
9:55 PM 50.2 °F 26.6 °F 40% 30.17 in 10.0 mi North 6.9 mph - N/A   Unknown
10:15 PM 50.4 °F 26.6 °F 40% 30.18 in 10.0 mi North 5.8 mph - N/A   Unknown
10:35 PM 49.3 °F 27.3 °F 43% 30.18 in 10.0 mi North 5.8 mph - N/A   Unknown
10:55 PM 48.6 °F 27.9 °F 45% 30.18 in 10.0 mi North 4.6 mph - N/A   Unknown
11:15 PM 48.2 °F 28.0 °F 46% 30.18 in 10.0 mi North 3.5 mph - N/A   Unknown
11:35 PM 48.2 °F 28.0 °F 46% 30.17 in 10.0 mi NNW 3.5 mph - N/A   Unknown
11:55 PM 47.3 °F 28.0 °F 47% 30.18 in 10.0 mi NW 3.5 mph - N/A   Unknown